Weather in El Paso

United States     31°45′32″N   106°29′12″W
temp.,
°C
wind,
m/s
gust,
m/s
humid.,
%
clouds,
%
prec.,
mm/h
press.,
hPa
HPBL,
m
7 may, fri
fri701:00+25sse57295 0.1 1015882
04:00+22sse411411 0.0 1014421
07:00+21nnw01430 0.0 1015115
10:00+24sse57350 0.0 1015744
13:00+29s67250 0.0 10121738
16:00+32sw79150 0.0 10073251
19:00+33wsw611104 0.0 10044361
22:00+29w81285 0.0 10071125
8 may, sat
sat801:00+26wsw61310100 0.0 1009680
04:00+23wsw391044 0.0 1009389
07:00+20wsw36130 0.0 1010264
10:00+23wsw510130 0.0 10101146
13:00+27wsw91270 0.0 10092476
16:00+29wsw101260 0.0 10063306
19:00+29w111370 0.0 10043889
22:00+26w91390 0.0 10061545
9 may, sun
sun901:00+23w914130 0.0 1008909
04:00+20w614150 0.0 1008636
07:00+18wsw411170 0.0 1010401
10:00+20wsw69160 0.0 1011825
13:00+25wsw67120 0.0 10102291
16:00+28wsw7885 0.0 10072661
19:00+29w81051 0.0 10053489
22:00+26wsw91285 0.0 10061193
10 may, mon
mon1001:00+23wsw914145 0.0 1008803
04:00+20wsw411197 0.0 1009507
07:00+18w382343 0.0 1011406
10:00+21wsw461510 0.0 1011818
13:00+25sw5680 0.0 10101951
16:00+28sw5760 0.0 10072664
19:00+29wsw5850 0.0 10053678
22:00+26wsw71170 0.0 1007701
11 may, tue
tue1101:00+23wsw612110 0.0 1009646
04:00+21w38130 0.0 1010315
07:00+19ssw11180 0.0 1012113
10:00+21ssw24170 0.0 1013710
13:00+26wsw6870 0.0 10122203
16:00+28wsw6950 0.0 10092907
19:00+29w6950 0.0 10073092
22:00+26w3770 0.0 1009531